When you browse on this site, cookies collect data to enhance your experience and personalize the content and advertising you see.
Visit our Privacy Policy to learn more. By continuing to use the site, you agree to this use of cookies and data.
  • In Germany
  • List of Countries
  • For 7 days
  • Water Temperature
  • Weather Map
  • Weather Widgets
  • user-avatar
    Login

    Hourly Weather Konstantyna

    Today, 19 August, Monday

    Time Temperature Precipitation Wind Pressure Humidity
    00:00 +26°C° 0 mm 0 mps 709 mmHg 42%
    01:00 +26°C° 0 mm 0 mps 709 mmHg 42%
    02:00 +26°C° 0 mm 0 mps 709 mmHg 42%
    03:00 +25°C° 0 mm 0 mps 708 mmHg 42%
    04:00 +26°C° 0 mm 0 mps 709 mmHg 42%
    05:00 +26°C° 0 mm 0 mps 709 mmHg 41%
    06:00 +27°C° 0 mm 0 mps 709 mmHg 41%
    07:00 +30°C° 0 mm 1 mps 710 mmHg 36%
    08:00 +32°C° 0 mm 1 mps 710 mmHg 32%
    09:00 +35°C° 0 mm 2 mps 711 mmHg 28%
    10:00 +36°C° 0 mm 2 mps 711 mmHg 26%
    11:00 +37°C° 0 mm 3 mps 711 mmHg 24%
    12:00 +38°C° 0 mm 4 mps 711 mmHg 22%
    13:00 +38°C° 0 mm 4 mps 711 mmHg 22%
    14:00 +39°C° 0 mm 5 mps 710 mmHg 22%
    15:00 +37°C° 0 mm 5 mps 710 mmHg 23%
    16:00 +35°C° 0 mm 5 mps 710 mmHg 27%
    17:00 +33°C° 0 mm 4 mps 710 mmHg 32%
    18:00 +32°C° 0 mm 4 mps 710 mmHg 36%
    19:00 +29°C° 0 mm 3 mps 710 mmHg 42%
    20:00 +28°C° 0 mm 2 mps 710 mmHg 48%
    21:00 +27°C° 0 mm 1 mps 710 mmHg 54%
    22:00 +27°C° 0 mm 1 mps 710 mmHg 54%
    23:00 +27°C° 0 mm 1 mps 710 mmHg 54%

    Tomorrow, 20 August, Tuesday

    Time Temperature Precipitation Wind Pressure Humidity
    00:00 +26°C° 0 mm 1 mps 710 mmHg 55%
    01:00 +26°C° 0 mm 1 mps 709 mmHg 54%
    02:00 +24°C° 0 mm 0 mps 709 mmHg 53%
    03:00 +23°C° 0 mm 0 mps 709 mmHg 53%
    04:00 +24°C° 0 mm 0 mps 709 mmHg 50%
    05:00 +24°C° 0 mm 0 mps 709 mmHg 48%
    06:00 +25°C° 0 mm 0 mps 709 mmHg 45%
    07:00 +29°C° 0 mm 1 mps 709 mmHg 39%
    08:00 +31°C° 0 mm 1 mps 710 mmHg 33%
    09:00 +33°C° 0 mm 1 mps 710 mmHg 27%
    10:00 +36°C° 0 mm 2 mps 710 mmHg 24%
    11:00 +37°C° 0 mm 3 mps 711 mmHg 21%
    12:00 +39°C° 0 mm 3 mps 711 mmHg 17%
    13:00 +40°C° 0 mm 4 mps 710 mmHg 18%
    14:00 +40°C° 0 mm 5 mps 710 mmHg 19%
    15:00 +40°C° 0 mm 5 mps 710 mmHg 20%
    16:00 +36°C° 0 mm 5 mps 710 mmHg 27%
    17:00 +34°C° 0 mm 5 mps 710 mmHg 33%
    18:00 +32°C° 0 mm 4 mps 710 mmHg 39%
    19:00 +30°C° 0 mm 3 mps 710 mmHg 46%
    20:00 +28°C° 0 mm 2 mps 710 mmHg 53%
    21:00 +27°C° 0 mm 1 mps 711 mmHg 60%
    22:00 +26°C° 0 mm 1 mps 711 mmHg 64%
    23:00 +26°C° 0 mm 1 mps 711 mmHg 68%

    Day after tomorrow, 21 August, Wednesday

    Time Temperature Precipitation Wind Pressure Humidity
    00:00 +25°C° 0 mm 1 mps 711 mmHg 71%
    01:00 +24°C° 0 mm 1 mps 710 mmHg 75%
    02:00 +24°C° 0 mm 1 mps 710 mmHg 78%
    03:00 +23°C° 0 mm 1 mps 710 mmHg 81%
    04:00 +23°C° 0 mm 1 mps 710 mmHg 82%
    05:00 +23°C° 0 mm 1 mps 711 mmHg 82%
    06:00 +23°C° 0 mm 1 mps 711 mmHg 82%
    07:00 +25°C° 0 mm 2 mps 711 mmHg 75%
    08:00 +26°C° 0 mm 2 mps 711 mmHg 67%
    09:00 +27°C° 0 mm 2 mps 712 mmHg 59%
    10:00 +29°C° 0 mm 2 mps 712 mmHg 52%
    11:00 +31°C° 0 mm 2 mps 712 mmHg 45%
    12:00 +33°C° 0 mm 3 mps 712 mmHg 38%
    13:00 +33°C° 0 mm 3 mps 711 mmHg 40%
    14:00 +33°C° 0 mm 4 mps 711 mmHg 41%
    15:00 +34°C° 0 mm 5 mps 711 mmHg 43%
    16:00 +32°C° 0 mm 5 mps 711 mmHg 53%
    17:00 +28°C° 0 mm 4 mps 711 mmHg 63%
    18:00 +26°C° 0 mm 4 mps 711 mmHg 73%
    19:00 +26°C° 0 mm 3 mps 711 mmHg 75%
    20:00 +25°C° 0 mm 3 mps 711 mmHg 78%
    21:00 +24°C° 0 mm 2 mps 712 mmHg 81%
    22:00 +24°C° 0 mm 2 mps 712 mmHg 81%
    23:00 +24°C° 0 mm 2 mps 712 mmHg 81%

    22 August, Thursday

    Time Temperature Precipitation Wind Pressure Humidity
    00:00 +24°C° 0 mm 2 mps 712 mmHg 81%
    01:00 +24°C° 0 mm 2 mps 711 mmHg 82%
    02:00 +24°C° 0 mm 1 mps 711 mmHg 82%
    03:00 +23°C° 0 mm 1 mps 711 mmHg 83%
    04:00 +23°C° 0.1 mm 1 mps 711 mmHg 83%
    05:00 +23°C° 0.1 mm 1 mps 712 mmHg 83%
    06:00 +23°C° 0.1 mm 1 mps 712 mmHg 83%
    07:00 +24°C° 0 mm 1 mps 712 mmHg 80%
    08:00 +24°C° 0 mm 2 mps 712 mmHg 76%
    09:00 +25°C° 0 mm 2 mps 713 mmHg 73%
    10:00 +25°C° 0 mm 2 mps 713 mmHg 69%
    11:00 +26°C° 0 mm 2 mps 712 mmHg 66%
    12:00 +27°C° 0 mm 2 mps 712 mmHg 62%
    13:00 +28°C° 0 mm 3 mps 712 mmHg 58%
    14:00 +29°C° 0 mm 4 mps 712 mmHg 53%
    15:00 +29°C° 0 mm 4 mps 712 mmHg 48%
    16:00 +28°C° 0 mm 4 mps 712 mmHg 52%
    17:00 +27°C° 0 mm 4 mps 711 mmHg 55%
    18:00 +25°C° 0 mm 4 mps 711 mmHg 59%
    19:00 +24°C° 0 mm 3 mps 712 mmHg 62%
    20:00 +23°C° 0 mm 2 mps 712 mmHg 65%
    21:00 +23°C° 0 mm 1 mps 712 mmHg 68%
    22:00 +22°C° 0 mm 1 mps 712 mmHg 69%
    23:00 +22°C° 0 mm 1 mps 711 mmHg 70%

    23 August, Friday

    Time Temperature Precipitation Wind Pressure Humidity
    00:00 +20°C° 0 mm 0 mps 711 mmHg 71%
    01:00 +19°C° 0 mm 0 mps 711 mmHg 71%
    02:00 +19°C° 0 mm 0 mps 711 mmHg 72%
    03:00 +19°C° 0 mm 0 mps 710 mmHg 72%
    04:00 +19°C° 0 mm 0 mps 711 mmHg 71%
    05:00 +19°C° 0 mm 0 mps 711 mmHg 70%
    06:00 +20°C° 0 mm 0 mps 711 mmHg 69%
    07:00 +22°C° 0 mm 0 mps 711 mmHg 62%
    08:00 +24°C° 0 mm 0 mps 712 mmHg 56%
    09:00 +26°C° 0 mm 0 mps 712 mmHg 49%
    10:00 +29°C° 0 mm 1 mps 712 mmHg 45%
    11:00 +31°C° 0 mm 2 mps 712 mmHg 41%
    12:00 +32°C° 0 mm 2 mps 711 mmHg 38%
    13:00 +34°C° 0 mm 3 mps 711 mmHg 36%
    14:00 +34°C° 0 mm 4 mps 711 mmHg 35%
    15:00 +34°C° 0 mm 4 mps 710 mmHg 34%
    16:00 +32°C° 0.1 mm 4 mps 710 mmHg 39%
    17:00 +29°C° 0.1 mm 4 mps 710 mmHg 43%
    18:00 +28°C° 0.1 mm 3 mps 709 mmHg 47%
    19:00 +27°C° 0.1 mm 3 mps 709 mmHg 50%
    20:00 +26°C° 0.1 mm 2 mps 710 mmHg 52%
    21:00 +25°C° 0.1 mm 1 mps 710 mmHg 55%
    22:00 +24°C° 0 mm 1 mps 710 mmHg 56%
    23:00 +24°C° 0 mm 1 mps 709 mmHg 58%

    24 August, Saturday

    Time Temperature Precipitation Wind Pressure Humidity
    00:00 +24°C° 0 mm 1 mps 709 mmHg 59%
    01:00 +23°C° 0 mm 1 mps 709 mmHg 60%
    02:00 +23°C° 0 mm 1 mps 709 mmHg 62%
    03:00 +23°C° 0 mm 1 mps 709 mmHg 63%
    04:00 +23°C° 0.2 mm 1 mps 709 mmHg 63%
    05:00 +23°C° 0.2 mm 1 mps 709 mmHg 62%
    06:00 +21°C° 0.2 mm 0 mps 709 mmHg 62%
    07:00 +25°C° 0 mm 1 mps 710 mmHg 57%
    08:00 +26°C° 0 mm 1 mps 710 mmHg 51%
    09:00 +28°C° 0 mm 1 mps 710 mmHg 45%
    10:00 +29°C° 0 mm 2 mps 710 mmHg 42%
    11:00 +31°C° 0 mm 2 mps 710 mmHg 39%
    12:00 +33°C° 0 mm 3 mps 710 mmHg 36%
    13:00 +33°C° 0 mm 4 mps 710 mmHg 37%
    14:00 +33°C° 0 mm 4 mps 710 mmHg 37%
    15:00 +33°C° 0 mm 5 mps 710 mmHg 38%
    16:00 +30°C° 0 mm 5 mps 709 mmHg 43%
    17:00 +28°C° 0 mm 4 mps 709 mmHg 49%
    18:00 +27°C° 0 mm 4 mps 709 mmHg 54%
    19:00 +26°C° 0 mm 3 mps 709 mmHg 57%
    20:00 +25°C° 0 mm 2 mps 709 mmHg 60%
    21:00 +24°C° 0 mm 1 mps 710 mmHg 63%
    22:00 +24°C° 0 mm 1 mps 710 mmHg 64%
    23:00 +23°C° 0 mm 1 mps 709 mmHg 65%
    Show more